Location: Burera
(21.3780°N, 81.9534°E)
Time: 00:11:12
(UTC+00:00)

COSMOS 2455 - Pass Details

Date: 13 August 2020
Orbit: 898 x 911 km, 67.1° (Epoch: 22 September)

Event Time Altitude Azimuth Distance (km) Brightness Sun altitude
Rises 23:31:58 0° 184° (S) 3,505 5.7 -9.3°
Reaches altitude 10° 23:34:35 10° 177° (S) 2,568 5.1 -8.8°
Maximum altitude 23:40:07 41° 108° (ESE) 1,279 4.2 -7.5°
Drops below altitude 10° 23:45:42 10° 39° (NE) 2,584 6.2 -6.3°
Sets 23:48:20 0° 33° (NNE) 3,529 6.8 -5.7°
